Location: Austin
(30.3000°N, 97.7500°W)
Time: 20:57:57
(UTC-06:00)

CZ-2D R/B - Pass Details

Date: 31 October 2024
Orbit: 463 x 474 km, 97.4° (Epoch: 05 November)

Event Time Altitude Azimuth Distance (km) Brightness Sun altitude
Rises 07:10:40 0° 11° (NNE) 2,511 6.7 -8.0°
Reaches altitude 10° 07:12:43 10° 12° (NNE) 1,633 5.8 -7.6°
Maximum altitude 07:16:14 86° 102° (ESE) 477 3.1 -6.8°
Drops below altitude 10° 07:19:44 10° 191° (S) 1,630 5.8 -6.1°
Sets 07:21:47 0° 191° (SSW) 2,505 6.7 -5.7°
